Location: Ariel
(45.9570°N, 122.5700°W)
Time: 05:59:23
(UTC-07:00)

Vanguard 2 - All Passes

Search period start: 18 July 2019 00:00
Search period end: 28 July 2019 00:00
Orbit: 553 x 2938 km, 32.9° (Epoch: 18 July)

Date Brightness Start Highest point End Pass type
(mag) Time Alt. Az. Time Alt. Az. Time Alt. Az.
18 Jul - 01:41:39 10° SW 01:51:22 33° S 01:57:43 10° ESE visible
18 Jul - 03:52:54 10° WSW 03:59:30 25° SSW 04:04:08 10° SE visible
18 Jul - 21:42:51 10° S 21:50:26 15° SSE 21:56:49 10° ESE visible
18 Jul - 23:48:50 10° SW 00:00:04 29° SSE 00:07:51 10° ESE visible
19 Jul - 01:59:18 10° WSW 02:09:09 34° S 02:15:31 10° ESE visible
19 Jul - 04:11:01 10° WSW 04:17:04 22° SSW 04:21:26 10° SSE visible
19 Jul - 21:57:58 10° SSW 22:08:11 21° SSE 22:16:17 10° ESE visible
20 Jul - 00:05:57 10° SW 00:17:54 34° S 00:25:55 10° ESE visible
20 Jul - 02:17:06 10° WSW 02:26:53 35° S 02:33:12 10° SE visible
20 Jul - 04:29:20 10° WSW 04:34:33 18° SSW 04:38:30 10° SSE visible
20 Jul - 20:15:47 10° SE 20:16:11 10° SE 20:16:35 10° SE daylight
20 Jul - 22:14:00 10° SSW 22:25:57 26° SSE 22:35:00 10° ESE visible
21 Jul - 00:23:20 10° SW 00:35:43 37° S 00:43:50 10° ESE visible
21 Jul - 02:35:01 10° WSW 02:44:34 33° SSW 02:50:48 10° SE visible
21 Jul - 04:48:02 10° WSW 04:51:56 14° SW 04:55:07 10° S visible
21 Jul - 20:25:44 10° S 20:33:49 15° SE 20:41:00 10° ESE daylight
21 Jul - 22:30:35 10° SSW 22:43:45 31° SSE 22:53:21 10° ESE visible
22 Jul - 00:40:55 10° WSW 00:53:31 40° S 01:01:41 10° ESE visible
22 Jul - 02:53:02 10° WSW 03:02:11 31° SSW 03:08:15 10° SE visible
22 Jul - 05:08:12 10° SW 05:09:14 10° SW 05:10:13 10° SSW visible
22 Jul - 20:40:28 10° S 20:51:27 21° SSE 21:00:47 10° ESE daylight
22 Jul - 22:47:34 10° SW 23:01:33 36° SSE 23:11:30 10° ESE visible
23 Jul - 00:58:39 10° WSW 01:11:18 41° S 01:19:25 10° ESE visible
23 Jul - 03:11:11 10° WSW 03:19:44 27° SSW 03:25:33 10° SSE visible
23 Jul - 20:56:16 10° SSW 21:09:07 26° SSE 21:19:42 10° ESE daylight
23 Jul - 23:04:50 10° SW 23:19:21 40° S 23:29:29 10° ESE visible
24 Jul - 01:16:31 10° WSW 01:29:03 41° S 01:37:05 10° SE visible
24 Jul - 03:29:31 10° WSW 03:37:10 23° SSW 03:42:37 10° SSE visible
24 Jul - 19:09:44 10° SSE 19:16:55 14° SE 19:23:44 10° ESE daylight
24 Jul - 21:12:39 10° SSW 21:26:49 32° SSE 21:38:10 10° E visible
24 Jul - 23:22:19 10° WSW 23:37:11 44° S 23:47:21 10° ESE visible
25 Jul - 01:34:29 10° WSW 01:46:44 39° SSW 01:54:38 10° SE visible
25 Jul - 03:48:08 10° WSW 03:54:30 18° SW 03:59:18 10° S visible
25 Jul - 19:23:48 10° S 19:34:24 19° SE 19:44:12 10° ESE daylight
25 Jul - 21:29:29 10° SW 21:44:33 37° SSE 21:56:24 10° E visible
25 Jul - 23:39:59 10° WSW 23:55:00 46° S 00:05:09 10° ESE visible
26 Jul - 01:52:33 10° W 02:04:20 35° SSW 02:12:05 10° SE visible
26 Jul - 04:07:23 10° WSW 04:11:44 14° SW 04:15:19 10° SSW visible
26 Jul - 19:39:15 10° SSW 19:51:55 25° SE 20:03:27 10° E daylight
26 Jul - 21:46:36 10° SW 22:02:19 42° SSE 22:14:27 10° E visible
26 Jul - 23:57:47 10° WSW 00:12:47 46° S 00:22:53 10° ESE visible
27 Jul - 02:10:44 10° W 02:21:51 31° SSW 02:29:20 10° SSE visible
27 Jul - 17:56:09 10° SE 17:59:59 11° SE 18:03:49 10° ESE daylight
27 Jul - 19:55:25 10° SSW 20:09:29 30° SSE 20:22:07 10° E daylight
27 Jul - 22:03:59 10° SW 22:20:07 45° S 22:32:25 10° ESE visible
